Location: ????? ???????
(25.7275°N, 32.5929°E)
Time: 10:13:16
(UTC+00:00)

Okean 1 - Pass Details

Date: 02 March 2021
Orbit: 538 x 554 km, 82.5° (Epoch: 15 April)

Event Time Altitude Azimuth Distance (km) Brightness Sun altitude
Rises 16:29:18 0° 7° (N) 2,722 6.8 -9.2°
Reaches altitude 10° 16:31:38 10° 17° (NNE) 1,828 5.8 -9.7°
Maximum altitude 16:35:16 32° 82° (E) 961 4.0 -10.5°
Drops below altitude 10° 16:38:53 10° 146° (SE) 1,825 5.7 -11.4°
Sets 16:41:12 0° 156° (SSE) 2,717 6.6 -11.9°
